Flag for Switzerland Weather past 2 weeks in Zürich, Zurich, Switzerland

Now
41 °F

Quite cool.


Feels Like: 35 °F
Forecast: 33 / 46 °F
Wind: 9 mph from Northwest

Location: Zurich Town / Ville.

Current Time: Dec 20, 2014 at 9:23:45 AM

Latest Report: Dec 20, 2014 at 8:00 AM


Visibility: N/A

Pressure: 30.37 "Hg

Humidity: 89%

Dew point: 38 °F

Location of ZürichLocation

Historic Weather in Zürich — Graph

°F

Zürich temperature yesterday

Maximum temperature yesterday: 54 °F (at 2:00 PM)
Minimum temperature yesterday: 47 °F (at 2:00 AM)
Average temperature yesterday: 50 °F

Past Weeks' High & Low Weather Summary

 TemperatureHumidityPressure
High54 °F (Dec 19, 2:00 PM)100% (Dec 9, 2:00 AM)30.47 "Hg (Dec 9, 2:00 AM)
Low30 °F (Dec 10, 2:00 AM)43% (Dec 13, 1:00 PM)29.87 "Hg (Dec 12, 8:00 PM)
Average41 °F82%30.13 "Hg
* Reported Dec 5 8:00 AM — Dec 20 8:00 AM, Zürich, Weather by CustomWeather, © 2014

Note: Actual official high and low records may vary slightly from our data, if they occured in-between our weather recording intervals... More about our weather records

Advertising

Zürich weather history for previous 24 hours

 ConditionsComfort  
Time TempWeatherWind HumidityBarometerVisibility
8:00 AM
Dec 20
41 °FQuite cool.9 mph89%30.37 "HgN/A
7:00 AM42 °FQuite cool.6 mph91%30.35 "HgN/A
6:00 AM45 °FCool.5 mph96%30.34 "HgN/A
5:00 AM46 °FCool.8 mph93%30.32 "HgN/A
4:00 AM47 °FCool.8 mph93%30.30 "HgN/A
3:00 AM47 °FCool.12 mph90%30.29 "HgN/A
2:00 AM47 °FCool.17 mph91%30.28 "HgN/A
1:00 AM48 °FCool.16 mph87%30.27 "HgN/A
12:00 AM47 °FCool.15 mph90%30.26 "HgN/A
11:00 PM
Dec 19
47 °FCool.15 mph91%30.25 "HgN/A
9:00 PM49 °FCool.17 mph80%30.20 "HgN/A
8:00 PM50 °FCool.14 mph74%30.19 "HgN/A
7:00 PM51 °FCool.14 mph67%30.17 "HgN/A
6:00 PM52 °FCool.12 mph66%30.16 "HgN/A
5:00 PM53 °FCool.13 mph62%30.15 "HgN/A
4:00 PM53 °FCool.14 mph65%30.15 "HgN/A
3:00 PM54 °FCool.12 mph65%30.16 "HgN/A
2:00 PM54 °FCool.10 mph65%30.17 "HgN/A
1:00 PM54 °FCool.12 mph67%30.19 "HgN/A
12:00 PM51 °FCool.12 mph72%30.21 "HgN/A
11:00 AM51 °FCool.12 mph73%30.22 "HgN/A
10:00 AM50 °FCool.13 mph75%30.22 "HgN/A
9:00 AM47 °FCool.8 mph84%30.24 "HgN/A
Weather by CustomWeather, © 2014

See weather overviewHow to use our weather pages